• In Slovakia
  • List of Countries
  • For 7 days
  • Water Temperature
  • Satellite Maps
  • Weather Map
  • Weather Widgets
  • user-avatar
    Login

    Hourly Weather San Juan

    Today, 16 January, Tuesday

    Time Temperature Precipitation Wind Pressure Humidity
    00:00 +28°C° 0 mm 2 mps 704 mmHg 47%
    01:00 +28°C° 0 mm 2 mps 704 mmHg 49%
    02:00 +27°C° 0.1 mm 4 mps 704 mmHg 56%
    03:00 +25°C° 0.1 mm 5 mps 704 mmHg 63%
    04:00 +23°C° 0.1 mm 7 mps 705 mmHg 70%
    05:00 +23°C° 0.2 mm 6 mps 705 mmHg 72%
    06:00 +23°C° 0.2 mm 6 mps 705 mmHg 73%
    07:00 +22°C° 0 mm 6 mps 706 mmHg 72%
    08:00 +23°C° 0 mm 5 mps 706 mmHg 66%
    09:00 +25°C° 0 mm 4 mps 706 mmHg 59%
    10:00 +27°C° 0 mm 4 mps 706 mmHg 53%
    11:00 +28°C° 0 mm 3 mps 705 mmHg 49%
    12:00 +29°C° 0 mm 3 mps 704 mmHg 46%
    13:00 +30°C° 0 mm 2 mps 704 mmHg 42%
    14:00 +31°C° 0.1 mm 2 mps 704 mmHg 40%
    15:00 +31°C° 0.1 mm 2 mps 703 mmHg 38%
    16:00 +32°C° 0.1 mm 2 mps 703 mmHg 36%
    17:00 +31°C° 0.7 mm 2 mps 703 mmHg 38%
    18:00 +31°C° 0.7 mm 3 mps 703 mmHg 39%
    19:00 +30°C° 0.7 mm 3 mps 704 mmHg 40%
    20:00 +29°C° 0.9 mm 3 mps 704 mmHg 43%
    21:00 +29°C° 0.9 mm 3 mps 705 mmHg 45%
    22:00 +28°C° 0.9 mm 2 mps 705 mmHg 48%
    23:00 +28°C° 0.8 mm 2 mps 705 mmHg 50%

    Tomorrow, 17 January, Wednesday

    Time Temperature Precipitation Wind Pressure Humidity
    00:00 +27°C° 0.8 mm 2 mps 705 mmHg 52%
    01:00 +27°C° 0.8 mm 1 mps 705 mmHg 54%
    02:00 +26°C° 0.5 mm 1 mps 705 mmHg 56%
    03:00 +26°C° 0.5 mm 2 mps 705 mmHg 58%
    04:00 +25°C° 0.5 mm 2 mps 705 mmHg 59%
    05:00 +26°C° 0.6 mm 2 mps 706 mmHg 58%
    06:00 +26°C° 0.6 mm 3 mps 706 mmHg 56%
    07:00 +26°C° 0.6 mm 4 mps 706 mmHg 54%
    08:00 +28°C° 0.5 mm 5 mps 707 mmHg 50%
    09:00 +29°C° 0.5 mm 5 mps 707 mmHg 45%
    10:00 +30°C° 0.5 mm 6 mps 707 mmHg 40%
    11:00 +30°C° 0.7 mm 6 mps 707 mmHg 40%
    12:00 +32°C° 0.7 mm 6 mps 706 mmHg 39%
    13:00 +32°C° 0.7 mm 6 mps 706 mmHg 39%
    14:00 +32°C° 0.4 mm 6 mps 705 mmHg 39%
    15:00 +32°C° 0.4 mm 5 mps 705 mmHg 38%
    16:00 +32°C° 0.4 mm 4 mps 705 mmHg 38%
    17:00 +32°C° 0.1 mm 4 mps 705 mmHg 40%
    18:00 +30°C° 0.1 mm 3 mps 706 mmHg 41%
    19:00 +30°C° 0.1 mm 3 mps 706 mmHg 43%
    20:00 +29°C° 0.2 mm 2 mps 706 mmHg 44%
    21:00 +29°C° 0.2 mm 2 mps 707 mmHg 46%
    22:00 +28°C° 0.2 mm 2 mps 707 mmHg 47%
    23:00 +28°C° 0.1 mm 2 mps 707 mmHg 49%

    Day after tomorrow, 18 January, Thursday

    Time Temperature Precipitation Wind Pressure Humidity
    00:00 +27°C° 0.1 mm 1 mps 707 mmHg 50%
    01:00 +27°C° 0.1 mm 1 mps 706 mmHg 51%
    02:00 +27°C° 0 mm 1 mps 706 mmHg 51%
    03:00 +26°C° 0 mm 1 mps 706 mmHg 52%
    04:00 +26°C° 0 mm 1 mps 706 mmHg 53%
    05:00 +26°C° 0 mm 1 mps 707 mmHg 50%
    06:00 +27°C° 0 mm 1 mps 707 mmHg 47%
    07:00 +28°C° 0 mm 1 mps 708 mmHg 44%
    08:00 +28°C° 0.1 mm 1 mps 708 mmHg 41%
    09:00 +29°C° 0.1 mm 2 mps 708 mmHg 39%
    10:00 +30°C° 0.1 mm 2 mps 708 mmHg 36%
    11:00 +31°C° 0.1 mm 2 mps 707 mmHg 34%
    12:00 +32°C° 0.1 mm 2 mps 707 mmHg 32%
    13:00 +32°C° 0.1 mm 2 mps 706 mmHg 30%
    14:00 +34°C° 0.2 mm 3 mps 706 mmHg 30%
    15:00 +34°C° 0.2 mm 3 mps 705 mmHg 29%
    16:00 +34°C° 0.2 mm 3 mps 705 mmHg 28%
    17:00 +34°C° 0.5 mm 2 mps 705 mmHg 30%
    18:00 +32°C° 0.5 mm 2 mps 705 mmHg 31%
    19:00 +31°C° 0.5 mm 2 mps 706 mmHg 33%
    20:00 +31°C° 0.5 mm 2 mps 706 mmHg 35%
    21:00 +30°C° 0.5 mm 2 mps 707 mmHg 36%
    22:00 +29°C° 0.5 mm 2 mps 707 mmHg 38%
    23:00 +29°C° 0.5 mm 2 mps 707 mmHg 40%

    19 January, Friday

    Time Temperature Precipitation Wind Pressure Humidity
    00:00 +28°C° 0.5 mm 2 mps 707 mmHg 41%
    01:00 +28°C° 0.5 mm 2 mps 707 mmHg 43%
    02:00 +28°C° 0.2 mm 2 mps 707 mmHg 44%
    03:00 +27°C° 0.2 mm 2 mps 707 mmHg 45%
    04:00 +27°C° 0.2 mm 2 mps 707 mmHg 46%
    05:00 +28°C° 0 mm 2 mps 707 mmHg 43%
    06:00 +28°C° 0 mm 2 mps 707 mmHg 41%
    07:00 +29°C° 0 mm 2 mps 708 mmHg 39%
    08:00 +30°C° 0.1 mm 2 mps 708 mmHg 37%
    09:00 +31°C° 0.1 mm 3 mps 707 mmHg 35%
    10:00 +33°C° 0.1 mm 3 mps 707 mmHg 33%
    11:00 +34°C° 0.2 mm 4 mps 707 mmHg 31%
    12:00 +34°C° 0.2 mm 4 mps 706 mmHg 30%
    13:00 +35°C° 0.2 mm 4 mps 705 mmHg 28%
    14:00 +36°C° 0.3 mm 5 mps 705 mmHg 28%
    15:00 +36°C° 0.3 mm 5 mps 704 mmHg 27%
    16:00 +36°C° 0.3 mm 5 mps 704 mmHg 27%
    17:00 +35°C° 0.4 mm 5 mps 704 mmHg 28%
    18:00 +35°C° 0.4 mm 4 mps 704 mmHg 30%
    19:00 +34°C° 0.4 mm 4 mps 704 mmHg 32%
    20:00 +33°C° 0.6 mm 4 mps 704 mmHg 33%
    21:00 +33°C° 0.6 mm 4 mps 705 mmHg 35%
    22:00 +31°C° 0.6 mm 3 mps 705 mmHg 36%
    23:00 +30°C° 0.3 mm 3 mps 704 mmHg 37%

    20 January, Saturday

    Time Temperature Precipitation Wind Pressure Humidity
    00:00 +30°C° 0.3 mm 2 mps 704 mmHg 39%
    01:00 +29°C° 0.3 mm 2 mps 704 mmHg 40%
    02:00 +29°C° 0.3 mm 2 mps 703 mmHg 43%
    03:00 +28°C° 0.3 mm 2 mps 703 mmHg 45%
    04:00 +28°C° 0.3 mm 2 mps 703 mmHg 48%
    05:00 +28°C° 0.3 mm 2 mps 703 mmHg 47%
    06:00 +29°C° 0.3 mm 2 mps 703 mmHg 47%
    07:00 +29°C° 0.3 mm 2 mps 704 mmHg 46%
    08:00 +30°C° 0.3 mm 2 mps 704 mmHg 43%
    09:00 +31°C° 0.3 mm 2 mps 703 mmHg 40%
    10:00 +32°C° 0.3 mm 2 mps 703 mmHg 37%
    11:00 +34°C° 0.2 mm 2 mps 703 mmHg 34%
    12:00 +35°C° 0.2 mm 2 mps 702 mmHg 31%
    13:00 +36°C° 0.2 mm 2 mps 702 mmHg 29%
    14:00 +36°C° 0.3 mm 3 mps 701 mmHg 28%
    15:00 +36°C° 0.3 mm 3 mps 701 mmHg 27%
    16:00 +36°C° 0.3 mm 3 mps 701 mmHg 27%
    17:00 +35°C° 0.6 mm 4 mps 701 mmHg 31%
    18:00 +34°C° 0.6 mm 4 mps 701 mmHg 36%
    19:00 +32°C° 0.6 mm 5 mps 701 mmHg 40%
    20:00 +30°C° 0.7 mm 5 mps 702 mmHg 45%
    21:00 +29°C° 0.7 mm 5 mps 702 mmHg 50%
    22:00 +28°C° 0.7 mm 5 mps 703 mmHg 55%
    23:00 +27°C° 0.8 mm 5 mps 703 mmHg 58%

    21 January, Sunday

    Time Temperature Precipitation Wind Pressure Humidity
    00:00 +26°C° 0.8 mm 5 mps 703 mmHg 61%
    01:00 +25°C° 0.8 mm 5 mps 702 mmHg 64%
    02:00 +26°C° 0.1 mm 4 mps 702 mmHg 59%
    03:00 +26°C° 0.1 mm 3 mps 702 mmHg 55%
    04:00 +26°C° 0.1 mm 2 mps 702 mmHg 51%
    05:00 +26°C° 0 mm 2 mps 703 mmHg 48%
    06:00 +27°C° 0 mm 1 mps 703 mmHg 44%
    07:00 +27°C° 0 mm 1 mps 703 mmHg 41%
    08:00 +28°C° 0 mm 2 mps 703 mmHg 37%
    09:00 +30°C° 0 mm 2 mps 703 mmHg 34%
    10:00 +31°C° 0 mm 3 mps 703 mmHg 30%
    11:00 +33°C° 0 mm 3 mps 702 mmHg 28%
    12:00 +34°C° 0 mm 4 mps 701 mmHg 26%
    13:00 +34°C° 0 mm 4 mps 701 mmHg 25%
    14:00 +35°C° 0 mm 4 mps 701 mmHg 25%
    15:00 +35°C° 0 mm 4 mps 700 mmHg 26%
    16:00 +35°C° 0 mm 4 mps 700 mmHg 26%
    17:00 +34°C° 0.2 mm 4 mps 701 mmHg 29%
    18:00 +33°C° 0.2 mm 4 mps 701 mmHg 32%
    19:00 +33°C° 0.2 mm 3 mps 702 mmHg 34%
    20:00 +31°C° 0.4 mm 3 mps 702 mmHg 36%
    21:00 +30°C° 0.4 mm 3 mps 702 mmHg 38%
    22:00 +30°C° 0.4 mm 2 mps 703 mmHg 41%
    23:00 +29°C° 0.1 mm 2 mps 702 mmHg 42%
    Show more